User: anonymous   Login
Location: Unspecified
(0.0000°N, 0.0000°E)
Time: 18:02:48
(UTC+00:00)
Language:

DSP F15 - Orbit

View from above orbital plane
View from above orbital plane
View from above satellite
View from above satellite

Ground track
Ground track

The orbit data is extracted from the following two-line orbital elements,

1 20929U 90095A   17314.14291350 0.00000000  00000-0  00000-0 0    09
2 20929  15.3948   9.6086 0007552 334.0489  25.9253  0.98394196    08
Epoch (UTC): 10 November 2017 03:25:47
Eccentricity: 0.0007552
inclination: 15.3948°
perigee height: 36288 km
apogee height: 36353 km
right ascension of ascending node: 9.6086°
argument of perigee: 334.0489°
revolutions per day: 0.98394196
mean anomaly at epoch: 25.9253°
orbit number at epoch: 0

The dashed part of the orbit path shows where the satellite is in the earth's shadow,  

DLR